| time (UTC) | temp F | wind direction | speed knots | gust knots | rain 1hr in | rain 24hr in | rain mn in | humidity % | barometer mb |
| 20260508181505 | 56 | 61 | 3.5 | 8.7 | 0.00 | 0.81 | 0.00 | 61 | 1001.3 |
| 20260508180002 | 56 | 34 | 4.3 | 8.7 | 0.00 | 0.81 | 0.00 | 64 | 1001.7 |
| 20260508174607 | 55 | 41 | 3.5 | 10.4 | 0.00 | 0.82 | 0.00 | 65 | 1001.7 |
| 20260508173057 | 55 | 33 | 5.2 | 11.3 | 0.00 | 0.82 | 0.00 | 66 | 1001.7 |
| 20260508171558 | 54 | 40 | 4.3 | 13.0 | 0.00 | 0.82 | 0.00 | 66 | 1001.8 |
| 20260508170056 | 53 | 45 | 6.1 | 11.3 | 0.00 | 0.82 | 0.00 | 70 | 1002.0 |
| 20260508164549 | 53 | 9 | 3.5 | 9.6 | 0.00 | 0.82 | 0.00 | 73 | 1002.1 |
| 20260508163110 | 51 | 360 | 2.6 | 10.4 | 0.00 | 0.82 | 0.00 | 76 | 1002.1 |
| 20260508161545 | 51 | 12 | 7.0 | 11.3 | 0.00 | 0.82 | 0.00 | 75 | 1001.7 |
| 20260508160044 | 51 | 27 | 5.2 | 9.6 | 0.00 | 0.82 | 0.00 | 77 | 1001.8 |
| 20260508154551 | 51 | 348 | 5.2 | 9.6 | 0.00 | 0.83 | 0.00 | 77 | 1002.2 |
| 20260508153042 | 51 | 360 | 7.0 | 11.3 | 0.00 | 0.83 | 0.00 | 76 | 1001.9 |
| 20260508151542 | 52 | 32 | 5.2 | 8.7 | 0.00 | 0.83 | 0.00 | 79 | 1001.7 |
| 20260508150039 | 52 | 20 | 5.2 | 9.6 | 0.00 | 0.83 | 0.00 | 80 | 1002.0 |
| 20260508144540 | 52 | 34 | 4.3 | 10.4 | 0.00 | 0.83 | 0.00 | 81 | 1002.0 |
| 20260508143037 | 52 | 32 | 5.2 | 9.6 | 0.00 | 0.83 | 0.00 | 84 | 1001.9 |
| 20260508141536 | 52 | 360 | 2.6 | 9.6 | 0.00 | 0.83 | 0.00 | 85 | 1002.2 |
| 20260508140033 | 52 | 51 | 3.5 | 8.7 | 0.00 | 0.83 | 0.00 | 87 | 1002.2 |
| 20260508134536 | 51 | 23 | 3.5 | 7.8 | 0.00 | 0.83 | 0.00 | 86 | 1002.4 |
| 20260508133030 | 52 | 15 | 3.5 | 7.8 | 0.00 | 0.83 | 0.00 | 87 | 1002.6 |
| 20260508131527 | 51 | 5 | 2.6 | 8.7 | 0.00 | 0.83 | 0.00 | 89 | 1002.8 |
| 20260508130022 | 50 | 5 | 3.5 | 7.8 | 0.00 | 0.83 | 0.00 | 93 | 1002.4 |
| 20260508124518 | 49 | 5 | 6.1 | 10.4 | 0.00 | 0.83 | 0.00 | 94 | 1002.2 |
| 20260508123016 | 47 | 47 | 4.3 | 10.4 | 0.00 | 0.83 | 0.00 | 98 | 1002.3 |
| 20260508121517 | 47 | 32 | 4.3 | 11.3 | 0.00 | 0.83 | 0.00 | 100 | 1002.8 |
| 20260508120015 | 47 | 38 | 2.6 | 8.7 | 0.00 | 0.83 | 0.00 | 100 | 1002.6 |
| 20260508114513 | 46 | 17 | 2.6 | 7.0 | 0.00 | 0.83 | 0.00 | 100 | 1002.7 |
| 20260508113011 | 44 | 46 | 2.6 | 7.8 | 0.00 | 0.83 | 0.00 | 100 | 1003.0 |
| 20260508111511 | 44 | 39 | 2.6 | 7.0 | 0.00 | 0.83 | 0.00 | 100 | 1002.7 |
| 20260508110010 | 44 | 15 | 1.7 | 4.3 | 0.00 | 0.83 | 0.00 | 100 | 1002.6 |
| 20260508104508 | 43 | 10 | 1.7 | 3.5 | 0.00 | 0.83 | 0.00 | 100 | 1002.6 |
| 20260508103011 | 43 | 10 | 0.9 | 2.6 | 0.00 | 0.83 | 0.00 | 100 | 1003.3 |
| 20260508101519 | 43 | 12 | 0.9 | 3.5 | 0.00 | 0.83 | 0.00 | 100 | 1003.0 |
| 20260508100006 | 43 | 13 | 1.7 | 4.3 | 0.00 | 0.83 | 0.00 | 100 | 1002.9 |
| 20260508094505 | 43 | 360 | 2.6 | 5.2 | 0.00 | 0.84 | 0.00 | 100 | 1002.7 |
| 20260508093009 | 43 | 32 | 1.7 | 4.3 | 0.00 | 0.84 | 0.00 | 100 | 1002.7 |
| 20260508091502 | 43 | 26 | 1.7 | 7.0 | 0.00 | 0.84 | 0.00 | 100 | 1002.6 |
| 20260508090111 | 44 | 26 | 3.5 | 7.0 | 0.00 | 0.84 | 0.00 | 100 | 1002.6 |
| 20260508084556 | 44 | 32 | 2.6 | 4.3 | 0.00 | 0.88 | 0.00 | 100 | 1002.4 |
| 20260508083054 | 44 | 38 | 1.7 | 7.0 | 0.00 | 0.88 | 0.00 | 100 | 1002.4 |
| 20260508081601 | 45 | 23 | 1.7 | 4.3 | 0.00 | 0.88 | 0.00 | 100 | 1002.1 |
| 20260508080054 | 46 | 31 | 2.6 | 3.5 | 0.00 | 0.88 | 0.00 | 100 | 1002.0 |
| 20260508074551 | 47 | 360 | 1.7 | 5.2 | 0.00 | 0.91 | 0.00 | 100 | 1002.0 |
| 20260508073050 | 47 | 22 | 2.6 | 5.2 | 0.00 | 0.91 | 0.00 | 100 | 1001.9 |
| 20260508071651 | 47 | 9 | 2.6 | 5.2 | 0.00 | 0.91 | 0.00 | 100 | 1002.1 |
| 20260508070046 | 46 | 36 | 2.6 | 3.5 | 0.00 | 0.91 | 0.00 | 100 | 1002.0 |
| 20260508064544 | 46 | 184 | 0.0 | 0.0 | 0.00 | 0.91 | 0.00 | 100 | 1001.9 |
| 20260508063044 | 45 | 184 | 0.0 | 0.0 | 0.00 | 0.91 | 0.00 | 100 | 1001.9 |
| 20260508061543 | 45 | 184 | 0.0 | 0.0 | 0.00 | 0.91 | 0.00 | 100 | 1002.0 |
| 20260508060044 | 45 | 184 | 0.0 | 0.0 | 0.00 | 0.91 | 0.00 | 100 | 1001.9 |
| 20260508054602 | 45 | 184 | 0.0 | 0.0 | 0.00 | 0.91 | 0.00 | 100 | 1001.9 |
| 20260508053042 | 45 | 184 | 0.0 | 0.0 | 0.00 | 0.91 | 0.00 | 100 | 1001.9 |
| 20260508051540 | 46 | 184 | 0.0 | 0.0 | 0.00 | 0.91 | 0.00 | 100 | 1001.8 |
| 20260508050041 | 46 | 184 | 0.0 | 0.0 | 0.00 | 0.91 | 0.00 | 100 | 1001.7 |
| 20260508044546 | 45 | 184 | 0.0 | 0.0 | 0.00 | 0.91 | 0.00 | 100 | 1002.0 |
| 20260508043037 | 45 | 184 | 0.0 | 0.0 | 0.00 | 0.91 | 0.00 | 100 | 1002.1 |
| 20260508041545 | 45 | 184 | 0.0 | 0.0 | 0.00 | 0.91 | 0.00 | 100 | 1002.1 |
| 20260508040032 | 45 | 184 | 0.0 | 1.7 | 0.00 | 0.91 | 0.00 | 100 | 1002.3 |
| 20260508034531 | 45 | 184 | 0.0 | 2.6 | 0.00 | 0.91 | 0.00 | 100 | 1002.4 |
| 20260508033036 | 45 | 186 | 0.0 | 1.7 | 0.00 | 0.91 | 0.00 | 100 | 1002.6 |
| 20260508031526 | 45 | 186 | 0.0 | 0.0 | 0.00 | 0.91 | 0.00 | 100 | 1002.6 |
| 20260508030036 | 45 | 186 | 0.9 | 2.6 | 0.00 | 0.91 | 0.00 | 100 | 1002.8 |
| 20260508024524 | 45 | 186 | 0.9 | 3.5 | 0.00 | 0.91 | 0.91 | 100 | 1002.6 |
| 20260508023036 | 45 | 185 | 1.7 | 3.5 | 0.00 | 0.91 | 0.91 | 100 | 1002.5 |
| 20260508021522 | 45 | 182 | 0.9 | 4.3 | 0.00 | 0.91 | 0.91 | 100 | 1002.5 |
| 20260508020021 | 46 | 186 | 1.7 | 5.2 | 0.00 | 0.91 | 0.91 | 100 | 1002.5 |
| 20260508014519 | 46 | 150 | 1.7 | 5.2 | 0.01 | 0.91 | 0.91 | 100 | 1002.6 |
| 20260508013020 | 46 | 182 | 0.9 | 3.5 | 0.01 | 0.91 | 0.91 | 100 | 1002.5 |
| 20260508011518 | 46 | 181 | 1.7 | 5.2 | 0.01 | 0.91 | 0.91 | 100 | 1002.7 |
| 20260508010033 | 47 | 187 | 0.9 | 2.6 | 0.01 | 0.91 | 0.91 | 100 | 1002.7 |
| 20260508004522 | 47 | 186 | 2.6 | 5.2 | 0.00 | 0.91 | 0.91 | 100 | 1003.1 |
| 20260508003020 | 47 | 185 | 3.5 | 4.3 | 0.00 | 0.91 | 0.91 | 100 | 1003.0 |
| 20260508001525 | 47 | 173 | 3.5 | 7.0 | 0.00 | 0.91 | 0.91 | 100 | 1002.8 |
| 20260508000019 | 47 | 173 | 0.9 | 4.3 | 0.00 | 0.91 | 0.91 | 100 | 1003.0 |
| 20260507234512 | 47 | 190 | 3.5 | 6.1 | 0.00 | 0.91 | 0.91 | 100 | 1003.3 |
| 20260507233012 | 47 | 192 | 2.6 | 7.0 | 0.01 | 0.91 | 0.91 | 100 | 1002.9 |
| 20260507231511 | 47 | 193 | 2.6 | 6.1 | 0.01 | 0.91 | 0.91 | 100 | 1003.3 |
| 20260507230012 | 47 | 207 | 2.6 | 7.8 | 0.01 | 0.91 | 0.91 | 100 | 1003.5 |
| 20260507224511 | 47 | 148 | 4.3 | 7.0 | 0.01 | 0.91 | 0.91 | 100 | 1003.3 |
| 20260507223011 | 47 | 228 | 2.6 | 8.7 | 0.01 | 0.90 | 0.90 | 100 | 1003.6 |
| 20260507221510 | 47 | 182 | 2.6 | 10.4 | 0.01 | 0.90 | 0.90 | 100 | 1003.6 |
| 20260507220008 | 47 | 200 | 4.3 | 8.7 | 0.01 | 0.90 | 0.90 | 100 | 1003.8 |
| 20260507214508 | 48 | 189 | 4.3 | 11.3 | 0.02 | 0.90 | 0.90 | 100 | 1003.9 |
| 20260507213017 | 48 | 217 | 4.3 | 8.7 | 0.06 | 0.89 | 0.89 | 100 | 1003.8 |
| 20260507211506 | 47 | 164 | 6.1 | 13.9 | 0.16 | 0.89 | 0.89 | 100 | 1003.2 |
| 20260507210007 | 47 | 181 | 2.6 | 7.8 | 0.22 | 0.89 | 0.89 | 100 | 1004.2 |
| 20260507204607 | 46 | 157 | 3.5 | 7.0 | 0.27 | 0.87 | 0.87 | 100 | 1004.7 |
| 20260507203104 | 47 | 180 | 3.5 | 7.8 | 0.33 | 0.83 | 0.83 | 100 | 1004.9 |
| 20260507201555 | 48 | 217 | 3.5 | 7.0 | 0.39 | 0.74 | 0.74 | 100 | 1005.4 |
| 20260507200105 | 48 | 205 | 5.2 | 8.7 | 0.39 | 0.67 | 0.67 | 100 | 1006.1 |
| 20260507194553 | 48 | 188 | 6.1 | 13.9 | 0.40 | 0.60 | 0.60 | 100 | 1005.5 |
| 20260507193110 | 48 | 193 | 7.0 | 13.9 | 0.35 | 0.50 | 0.50 | 100 | 1005.4 |
| 20260507191556 | 49 | 202 | 8.7 | 16.5 | 0.22 | 0.35 | 0.35 | 100 | 1006.1 |
| 20260507190047 | 49 | 175 | 7.0 | 13.0 | 0.17 | 0.28 | 0.28 | 100 | 1006.3 |
| 20260507184545 | 48 | 167 | 3.5 | 13.0 | 0.09 | 0.19 | 0.19 | 100 | 1006.5 |
| 20260507183056 | 49 | 221 | 7.0 | 14.8 | 0.06 | 0.15 | 0.15 | 100 | 1006.4 |